This demonstration page uses our WeatherBlox Daily Observations layout. Learn more.

Left ArrowRight Arrow

Hourly Observations for May 5, 2020

Temp ( °F °C ) Dew Point ( °F °C ) Humidity (%) Winds ( mph kmh ) Pressure ( in mb ) Visibility ( mi km ) Precip ( " mm )
12:15 am 00:15 Clear 52 11 37 3 58 58 NNE 6 9 29.99 1016 10 16 N/A
12:35 am 00:35 Clear 52 11 37 3 58 58 N 7 11 30.00 1016 10 16 N/A
12:55 am 00:55 Clear 52 11 37 3 58 58 NNE 7 11 29.99 1016 10 16 N/A
1:15 am 01:15 Clear 52 11 37 3 58 58 N 7 11 30.00 1016 10 16 N/A
1:35 am 01:35 Clear 52 11 37 3 58 58 N 6 9 30.02 1017 10 16 N/A
1:55 am 01:55 Clear 50 10 37 3 62 62 NNW 8 13 30.03 1017 10 16 N/A
2:15 am 02:15 Clear 50 10 37 3 62 62 N 5 7 30.04 1017 10 16 N/A
2:35 am 02:35 Clear 50 10 37 3 62 62 N 8 13 30.03 1017 10 16 N/A
2:55 am 02:55 Clear 50 10 37 3 62 62 N 6 9 30.04 1017 10 16 N/A
3:15 am 03:15 Clear 50 10 37 3 62 62 N 7 11 30.03 1017 10 16 N/A
3:35 am 03:35 Clear 48 9 37 3 66 66 N 5 7 30.04 1017 10 16 N/A
3:55 am 03:55 Clear 48 9 36 2 62 62 N 6 9 30.03 1017 10 16 N/A
4:15 am 04:15 Clear 48 9 36 2 62 62 N 6 9 30.02 1017 10 16 N/A
4:35 am 04:35 Clear 48 9 36 2 62 62 NNE 8 13 30.00 1016 10 16 N/A
4:55 am 04:55 Clear 48 9 36 2 62 62 N 9 15 30.00 1016 10 16 N/A
5:15 am 05:15 Clear 46 8 36 2 66 66 N 8 13 30.00 1016 10 16 N/A
5:35 am 05:35 Clear 46 8 36 2 66 66 N 3 6 30.00 1016 10 16 N/A
5:55 am 05:55 Clear 46 8 36 2 66 66 N 5 7 30.01 1016 10 16 N/A
6:15 am 06:15 Sunny 45 7 37 3 76 76 N N/A 30.04 1017 10 16 N/A
6:35 am 06:35 Sunny 45 7 37 3 76 76 N N/A 30.04 1017 10 16 N/A
6:55 am 06:55 Sunny 46 8 37 3 71 71 NW 3 6 30.04 1017 10 16 N/A
7:15 am 07:15 Sunny 46 8 37 3 71 71 N N/A 30.04 1017 10 16 N/A
7:35 am 07:35 Sunny 46 8 37 3 71 71 NNE 3 6 30.03 1017 10 16 N/A
7:55 am 07:55 Sunny 46 8 37 3 71 71 NNW 3 6 30.04 1017 10 16 N/A
8:15 am 08:15 Sunny 48 9 37 3 66 66 NW 5 7 30.04 1017 10 16 N/A
9:55 am 09:55 Sunny 52 11 36 2 54 54 NW 5 7 30.02 1017 10 16 N/A
10:15 am 10:15 Sunny 52 11 34 1 50 50 N N/A 30.02 1017 10 16 N/A
10:35 am 10:35 Sunny 52 11 36 2 54 54 NNW 6 9 30.02 1017 10 16 N/A
10:55 am 10:55 Sunny 52 11 36 2 54 54 N N/A 30.03 1017 10 16 N/A
11:15 am 11:15 Sunny 52 11 36 2 54 54 N 3 6 30.02 1017 10 16 N/A
11:35 am 11:35 Sunny 52 11 37 3 58 58 W 6 9 30.03 1017 10 16 N/A
11:55 am 11:55 Partly Cloudy 54 12 36 2 51 51 W 6 9 30.03 1017 10 16 N/A
12:15 pm 12:15 Mostly Cloudy 52 11 36 2 54 54 N N/A 30.02 1017 10 16 N/A
12:35 pm 12:35 Mostly Cloudy 52 11 36 2 54 54 N N/A 29.98 1015 10 16 N/A
12:55 pm 12:55 Mostly Cloudy 54 12 36 2 51 51 ESE 3 6 29.97 1015 10 16 N/A
1:15 pm 13:15 Cloudy 54 12 36 2 51 51 N N/A 29.97 1015 10 16 N/A
1:35 pm 13:35 Cloudy 54 12 37 3 54 54 N N/A 29.96 1015 10 16 N/A
1:55 pm 13:55 Cloudy 54 12 36 2 51 51 N N/A 29.96 1015 10 16 N/A
2:15 pm 14:15 Cloudy 55 13 36 2 47 47 N N/A 29.95 1014 10 16 N/A
2:35 pm 14:35 Cloudy 55 13 36 2 47 47 SSW 3 6 29.95 1014 10 16 N/A
2:55 pm 14:55 Cloudy 55 13 37 3 51 51 N N/A 29.95 1014 10 16 N/A
3:15 pm 15:15 Cloudy 55 13 36 2 47 47 N N/A 29.94 1014 10 16 N/A
3:35 pm 15:35 Cloudy 55 13 36 2 47 47 N N/A 29.93 1014 10 16 N/A
3:55 pm 15:55 Cloudy 55 13 36 2 47 47 N N/A 29.90 1013 10 16 N/A
4:15 pm 16:15 Cloudy 55 13 36 2 47 47 N N/A 29.91 1013 10 16 N/A
4:35 pm 16:35 Cloudy 55 13 36 2 47 47 N N/A 29.90 1013 10 16 N/A
4:55 pm 16:55 Cloudy 55 13 36 2 47 47 N N/A 29.91 1013 10 16 N/A
5:15 pm 17:15 Cloudy 55 13 36 2 47 47 N N/A 29.90 1013 10 16 N/A
5:35 pm 17:35 Cloudy 55 13 36 2 47 47 N N/A 29.89 1012 10 16 N/A
5:55 pm 17:55 Cloudy 55 13 37 3 51 51 ENE 3 6 29.88 1012 10 16 N/A
6:15 pm 18:15 Cloudy 55 13 37 3 51 51 ENE 5 7 29.88 1012 10 16 N/A
6:35 pm 18:35 Cloudy 55 13 37 3 51 51 NE 3 6 29.87 1012 10 16 N/A
6:55 pm 18:55 Cloudy 55 13 37 3 51 51 N N/A 29.87 1012 10 16 N/A
7:15 pm 19:15 Cloudy 55 13 41 5 59 59 S 5 7 29.87 1012 10 16 N/A
7:35 pm 19:35 Cloudy 54 12 45 7 72 72 N N/A 29.87 1012 10 16 N/A
7:55 pm 19:55 Cloudy 52 11 46 8 82 82 SSW 7 11 29.88 1012 10 16 N/A
8:15 pm 20:15 Cloudy 52 11 46 8 82 82 SSW 5 7 29.88 1012 10 16 N/A
8:35 pm 20:35 Cloudy 50 10 46 8 88 88 SW 6 9 29.91 1013 7 11 0.02 0.51
8:55 pm 20:55 Cloudy 48 9 46 8 94 94 SW 3 6 29.91 1013 7 11 0.05 1.27
9:15 pm 21:15 Cloudy 48 9 48 9 100 100 N N/A 29.91 1013 10 16 N/A
9:35 pm 21:35 Cloudy 48 9 48 9 100 100 S 5 7 29.91 1013 7 11 0.02 0.51
9:55 pm 21:55 Cloudy 46 8 46 8 100 100 N N/A 29.92 1013 7 11 0.05 1.27
10:15 pm 22:15 Cloudy 46 8 46 8 100 100 SSW 3 6 29.92 1013 10 16 0.01 0.25
10:35 pm 22:35 Cloudy 46 8 46 8 100 100 N N/A 29.92 1013 7 11 0.02 0.51
10:55 pm 22:55 Cloudy 46 8 46 8 100 100 S 5 7 29.92 1013 5 8 0.06 1.52
11:15 pm 23:15 Cloudy 46 8 46 8 100 100 SSW 3 6 29.90 1012 7 11 0.01 0.25
11:35 pm 23:35 Cloudy 46 8 46 8 100 100 N N/A 29.89 1012 7 11 0.02 0.51
11:55 pm 23:55 Cloudy 46 8 46 8 100 100 SE 3 6 29.90 1012 10 16 0.02 0.51

Powered by AerisWeather